EN

Hourly Weather Tongliao

Today, 16 May, Sunday

Time Temperature Precipitation Wind Pressure Humidity
00:00 +16°C° 0 mm 1 mps 742 mmHg 28%
01:00 +16°C° 0 mm 1 mps 742 mmHg 29%
02:00 +16°C° 0 mm 2 mps 741 mmHg 29%
03:00 +15°C° 0 mm 2 mps 741 mmHg 31%
04:00 +15°C° 0 mm 2 mps 741 mmHg 34%
05:00 +14°C° 0 mm 3 mps 741 mmHg 36%
06:00 +17°C° 0 mm 3 mps 742 mmHg 31%
07:00 +19°C° 0 mm 3 mps 742 mmHg 26%
08:00 +21°C° 0 mm 4 mps 742 mmHg 22%
09:00 +22°C° 0 mm 4 mps 741 mmHg 19%
10:00 +23°C° 0 mm 4 mps 741 mmHg 16%
11:00 +25°C° 0 mm 4 mps 741 mmHg 13%
12:00 +26°C° 0 mm 4 mps 740 mmHg 12%
13:00 +26°C° 0 mm 4 mps 740 mmHg 12%
14:00 +27°C° 0 mm 4 mps 739 mmHg 11%
15:00 +27°C° 0 mm 4 mps 739 mmHg 11%
16:00 +26°C° 0 mm 3 mps 739 mmHg 11%
17:00 +26°C° 0 mm 3 mps 738 mmHg 11%
18:00 +24°C° 0 mm 3 mps 738 mmHg 12%
19:00 +22°C° 0 mm 3 mps 738 mmHg 14%
20:00 +20°C° 0 mm 2 mps 738 mmHg 16%
21:00 +19°C° 0 mm 3 mps 738 mmHg 17%
22:00 +18°C° 0 mm 3 mps 738 mmHg 17%
23:00 +17°C° 0 mm 3 mps 738 mmHg 18%

Tomorrow, 17 May, Monday

Time Temperature Precipitation Wind Pressure Humidity
00:00 +17°C° 0 mm 3 mps 738 mmHg 20%
01:00 +16°C° 0 mm 3 mps 738 mmHg 21%
02:00 +14°C° 0 mm 3 mps 738 mmHg 22%
03:00 +14°C° 0 mm 3 mps 738 mmHg 24%
04:00 +14°C° 0 mm 3 mps 738 mmHg 27%
05:00 +14°C° 0 mm 3 mps 738 mmHg 29%
06:00 +17°C° 0 mm 3 mps 739 mmHg 26%
07:00 +20°C° 0 mm 2 mps 739 mmHg 23%
08:00 +24°C° 0 mm 2 mps 739 mmHg 19%
09:00 +25°C° 0 mm 3 mps 739 mmHg 18%
10:00 +27°C° 0 mm 3 mps 739 mmHg 16%
11:00 +29°C° 0 mm 4 mps 739 mmHg 14%
12:00 +29°C° 0 mm 4 mps 738 mmHg 14%
13:00 +30°C° 0 mm 3 mps 738 mmHg 13%
14:00 +30°C° 0 mm 3 mps 738 mmHg 13%
15:00 +30°C° 0 mm 3 mps 737 mmHg 12%
16:00 +30°C° 0 mm 3 mps 737 mmHg 12%
17:00 +30°C° 0 mm 3 mps 737 mmHg 12%
18:00 +28°C° 0 mm 3 mps 737 mmHg 14%
19:00 +26°C° 0 mm 3 mps 737 mmHg 16%
20:00 +24°C° 0 mm 3 mps 737 mmHg 18%
21:00 +23°C° 0 mm 4 mps 736 mmHg 18%
22:00 +22°C° 0 mm 5 mps 736 mmHg 17%
23:00 +22°C° 0 mm 6 mps 736 mmHg 17%

Day after tomorrow, 18 May, Tuesday

Time Temperature Precipitation Wind Pressure Humidity
00:00 +21°C° 0 mm 6 mps 736 mmHg 17%
01:00 +21°C° 0 mm 6 mps 735 mmHg 18%
02:00 +21°C° 0 mm 6 mps 735 mmHg 18%
03:00 +20°C° 0 mm 6 mps 735 mmHg 20%
04:00 +20°C° 0 mm 5 mps 734 mmHg 22%
05:00 +19°C° 0 mm 5 mps 734 mmHg 24%
06:00 +22°C° 0 mm 5 mps 735 mmHg 22%
07:00 +26°C° 0 mm 6 mps 735 mmHg 19%
08:00 +28°C° 0 mm 6 mps 735 mmHg 17%
09:00 +30°C° 0 mm 6 mps 735 mmHg 15%
10:00 +33°C° 0 mm 6 mps 735 mmHg 12%
11:00 +35°C° 0 mm 6 mps 735 mmHg 10%
12:00 +36°C° 0 mm 6 mps 734 mmHg 9%
13:00 +36°C° 0 mm 7 mps 734 mmHg 8%
14:00 +38°C° 0 mm 7 mps 733 mmHg 7%
15:00 +38°C° 0 mm 7 mps 733 mmHg 8%
16:00 +36°C° 0 mm 7 mps 732 mmHg 8%
17:00 +36°C° 0 mm 6 mps 732 mmHg 8%
18:00 +33°C° 0.1 mm 6 mps 733 mmHg 16%
19:00 +28°C° 0.1 mm 5 mps 734 mmHg 24%
20:00 +25°C° 0.1 mm 4 mps 735 mmHg 32%
21:00 +23°C° 0 mm 4 mps 735 mmHg 34%
22:00 +22°C° 0 mm 4 mps 735 mmHg 36%
23:00 +21°C° 0 mm 3 mps 735 mmHg 39%

19 May, Wednesday

Time Temperature Precipitation Wind Pressure Humidity
00:00 +20°C° 0 mm 3 mps 735 mmHg 41%
01:00 +20°C° 0 mm 3 mps 735 mmHg 44%
02:00 +19°C° 0 mm 3 mps 735 mmHg 46%
03:00 +19°C° 0 mm 4 mps 736 mmHg 45%
04:00 +19°C° 0 mm 5 mps 736 mmHg 44%
05:00 +17°C° 0 mm 5 mps 737 mmHg 44%
06:00 +20°C° 0 mm 5 mps 737 mmHg 41%
07:00 +21°C° 0 mm 5 mps 738 mmHg 38%
08:00 +22°C° 0 mm 5 mps 738 mmHg 35%
09:00 +23°C° 0 mm 4 mps 738 mmHg 33%
10:00 +26°C° 0 mm 3 mps 738 mmHg 30%
11:00 +27°C° 0 mm 2 mps 738 mmHg 28%
12:00 +28°C° 0 mm 2 mps 738 mmHg 26%
13:00 +29°C° 0 mm 1 mps 738 mmHg 24%
14:00 +30°C° 0 mm 1 mps 737 mmHg 22%
15:00 +30°C° 0 mm 2 mps 737 mmHg 23%
16:00 +29°C° 0 mm 3 mps 737 mmHg 23%
17:00 +29°C° 0 mm 4 mps 736 mmHg 24%
18:00 +27°C° 0.1 mm 5 mps 737 mmHg 33%
19:00 +24°C° 0.1 mm 6 mps 737 mmHg 42%
20:00 +22°C° 0.1 mm 7 mps 738 mmHg 51%
21:00 +22°C° 0 mm 6 mps 738 mmHg 49%
22:00 +21°C° 0 mm 6 mps 738 mmHg 48%
23:00 +21°C° 0 mm 6 mps 738 mmHg 46%

20 May, Thursday

Time Temperature Precipitation Wind Pressure Humidity
00:00 +21°C° 0 mm 6 mps 738 mmHg 45%
01:00 +20°C° 0 mm 6 mps 737 mmHg 45%
02:00 +19°C° 0 mm 6 mps 737 mmHg 44%
03:00 +18°C° 0 mm 7 mps 737 mmHg 45%
04:00 +18°C° 0 mm 7 mps 737 mmHg 46%
05:00 +17°C° 0 mm 7 mps 737 mmHg 47%
06:00 +20°C° 0 mm 8 mps 737 mmHg 41%
07:00 +23°C° 0 mm 8 mps 737 mmHg 35%
08:00 +26°C° 0 mm 8 mps 737 mmHg 30%
09:00 +28°C° 0 mm 8 mps 737 mmHg 27%
10:00 +31°C° 0 mm 8 mps 737 mmHg 24%
11:00 +33°C° 0 mm 8 mps 737 mmHg 21%
12:00 +33°C° 0 mm 8 mps 736 mmHg 21%
13:00 +34°C° 0 mm 8 mps 736 mmHg 20%
14:00 +35°C° 0 mm 8 mps 736 mmHg 19%
15:00 +34°C° 0 mm 8 mps 735 mmHg 20%
16:00 +34°C° 0 mm 8 mps 735 mmHg 22%
17:00 +33°C° 0 mm 8 mps 735 mmHg 23%
18:00 +31°C° 0 mm 8 mps 735 mmHg 26%
19:00 +28°C° 0 mm 8 mps 736 mmHg 29%
20:00 +26°C° 0 mm 7 mps 736 mmHg 32%
21:00 +24°C° 0 mm 8 mps 736 mmHg 36%
22:00 +23°C° 0 mm 8 mps 736 mmHg 41%
23:00 +22°C° 0 mm 8 mps 736 mmHg 46%

21 May, Friday

Time Temperature Precipitation Wind Pressure Humidity
00:00 +21°C° 0 mm 7 mps 736 mmHg 50%
01:00 +20°C° 0 mm 6 mps 736 mmHg 54%
02:00 +20°C° 0 mm 5 mps 736 mmHg 59%
03:00 +19°C° 0 mm 5 mps 736 mmHg 60%
04:00 +19°C° 0 mm 5 mps 736 mmHg 61%
05:00 +19°C° 0 mm 5 mps 736 mmHg 62%
06:00 +21°C° 0 mm 6 mps 736 mmHg 56%
07:00 +23°C° 0 mm 7 mps 736 mmHg 49%
08:00 +26°C° 0 mm 7 mps 736 mmHg 43%
09:00 +28°C° 0 mm 7 mps 736 mmHg 37%
10:00 +32°C° 0 mm 8 mps 736 mmHg 32%
11:00 +34°C° 0 mm 8 mps 735 mmHg 26%
12:00 +35°C° 0 mm 8 mps 735 mmHg 24%
13:00 +37°C° 0 mm 8 mps 735 mmHg 22%
14:00 +38°C° 0 mm 8 mps 734 mmHg 20%
15:00 +37°C° 0 mm 8 mps 734 mmHg 21%
16:00 +37°C° 0 mm 8 mps 734 mmHg 21%
17:00 +35°C° 0 mm 8 mps 734 mmHg 22%
18:00 +33°C° 0 mm 8 mps 734 mmHg 27%
19:00 +31°C° 0 mm 8 mps 735 mmHg 32%
20:00 +28°C° 0 mm 8 mps 735 mmHg 37%
21:00 +27°C° 0 mm 8 mps 735 mmHg 38%
22:00 +24°C° 0 mm 8 mps 735 mmHg 39%
23:00 +23°C° 0 mm 8 mps 735 mmHg 40%
Show more

We Need Your Consent

Meteoprog and our Service Providers may store and access personal data such as cookies, device identifiers or other similar technologies on your device and process such data to personalise content and ads, as well as provide social media features and to analyse the traffic.

  • Store and/or access information on your device

    Cookies, device identifiers or other information can be stored or accessed on your device for the purposes indicated above.

  • Personalised ads and content, ad and content measurement, audience insights, and products development

    Ads and content can be personalised based on a profile. More data can be added to better personalise ads and content. Ad and content performance can be measured. Insights about the audience who saw the ads and content can be derived. Such data can be used to develop or improve user’s experience, systems and software.

By clicking ‘I Agree’ you will allow the use of indicated cookies, device identifiers, web beacons or other similar technologies. Your settings can be changed in the browser on your device.

For certain purposes, legitimate interests may be relied on, rather than consent. You can read more about this in our Privacy and Cookie Policy.